Tracy, MN

2:13 PM CDT on March 29, 2017 (GMT -0500)
Tracy

Weather History for KTKC - June, 2013

Change the Weather History Date:

Saturday, June 15, 2013

  Actual Average (KMML) Record (KMML)
Temperature  
Mean Temperature 74 °F -  
Max Temperature 81 °F 78 °F 91 °F (1950)
Min Temperature 65 °F 55 °F 40 °F (1968)
Cooling Degree Days 8    
Growing Degree Days 24 (Base 50)    
Moisture  
Dew Point 57 °F    
Average Humidity 64    
Maximum Humidity 89    
Minimum Humidity 30    
Precipitation  
Precipitation 0.00 in - - ()
Sea Level Pressure  
Sea Level Pressure 29.91 in    
Wind  
Wind Speed 3 mph (WSW)    
Max Wind Speed 14 mph    
Max Gust Speed 20 mph    
Visibility 10 miles    
Events Rain , Thunderstorm    
Averages and records for this station are not official NWS values.
T = Trace of Precipitation, MM = Missing Value Source: NWS Daily Summary

Daily Weather History Graph

Daily Weather History Graph

Search for Another Location

Airport or City:

Trip Planner

Search our weather history database for the weather conditions in past years. The results will help you decide how hot, cold, wet, or windy it might be!

Date:

Astronomy

Jun. 15, 2013 Rise Set
Actual Time 5:38 AM CDT 9:08 PM CDT
Civil Twilight 5:01 AM CDT 9:44 PM CDT
Nautical Twilight 4:13 AM CDT 10:32 PM CDT
Astronomical Twilight 3:11 AM CDT 11:34 PM CDT
Moon 12:27 PM CDT (6/15) 12:31 AM CDT (6/15)
Length of Visible Light 16h 43m
Length of Day
15h 30m
Waxing Crescent, 40% of the Moon is Illuminated
Jun 15
Waxing Crescent
Jun 16
First Quarter
Jun 23
Full
Jun 29
Last Quarter
Jul 8
New

Hourly Weather History & Observations

Time (CDT) Temp. Dew Point Humidity Pressure Visibility Wind Dir Wind Speed Gust Speed Precip Events Conditions
12:14 AM 69.8 °F 64.4 °F 83% 29.87 in 10.0 mi Calm Calm - N/A   Mostly Cloudy
12:33 AM 69.8 °F 64.6 °F 83% 29.88 in 10.0 mi Calm Calm - N/A   Mostly Cloudy
12:53 AM 70.0 °F 64.8 °F 83% 29.88 in 10.0 mi Calm Calm - N/A   Scattered Clouds
1:13 AM 69.8 °F 64.8 °F 84% 29.88 in 10.0 mi Calm Calm - N/A   Clear
1:33 AM 69.3 °F 64.4 °F 84% 29.87 in 10.0 mi SSW 11.5 mph 19.6 mph N/A   Clear
1:53 AM 68.9 °F 63.9 °F 84% 29.87 in 10.0 mi SSW 11.5 mph 18.4 mph N/A   Clear
2:13 AM 68.5 °F 64.0 °F 85% 29.87 in 10.0 mi SSW 12.7 mph 16.1 mph N/A   Clear
2:33 AM 68.4 °F 64.0 °F 86% 29.87 in 10.0 mi SW 9.2 mph - N/A   Clear
2:54 AM 68.0 °F 63.9 °F 87% 29.87 in 10.0 mi SW 12.7 mph 19.6 mph N/A   Clear
3:13 AM 67.5 °F 63.7 °F 88% 29.87 in 10.0 mi SW 13.8 mph - N/A   Clear
3:34 AM 67.3 °F 63.7 °F 88% 29.87 in 10.0 mi Calm Calm - N/A   Clear
3:53 AM 67.1 °F 63.7 °F 89% 29.87 in 10.0 mi SSW 13.8 mph - N/A   Clear
4:14 AM 67.3 °F 63.7 °F 88% 29.87 in 10.0 mi SW 12.7 mph - N/A   Clear
4:34 AM 67.1 °F 63.5 °F 88% 29.88 in 10.0 mi SW 12.7 mph - N/A   Clear
4:53 AM 66.7 °F 63.3 °F 89% 29.88 in 10.0 mi Calm Calm - N/A   Clear
5:14 AM 66.6 °F 63.1 °F 89% 29.88 in 10.0 mi SW 13.8 mph - N/A   Clear
5:34 AM 66.6 °F 62.8 °F 88% 29.89 in 10.0 mi SW 12.7 mph - N/A   Clear
5:54 AM 66.7 °F 62.6 °F 86% 29.90 in 10.0 mi SW 13.8 mph - N/A   Clear
6:13 AM 67.3 °F 62.4 °F 84% 29.89 in 10.0 mi Calm Calm - N/A   Clear
6:33 AM 67.3 °F 62.6 °F 85% 29.89 in 10.0 mi Calm Calm - N/A   Clear
6:53 AM 67.3 °F 62.8 °F 85% 29.91 in 10.0 mi Calm Calm - N/A   Clear
7:14 AM 69.1 °F 63.9 °F 83% 29.91 in 10.0 mi Calm Calm - N/A   Clear
7:34 AM 70.7 °F 64.2 °F 80% 29.90 in 10.0 mi Calm Calm - N/A   Clear
7:54 AM 70.9 °F 63.7 °F 78% 29.89 in 10.0 mi NNW 12.7 mph 19.6 mph N/A   Clear
8:13 AM 71.2 °F 63.7 °F 77% 29.90 in 10.0 mi North 8.1 mph - N/A   Clear
8:34 AM 70.9 °F 63.5 °F 77% 29.92 in 10.0 mi NNW 3.5 mph - N/A   Clear
8:53 AM 70.2 °F 63.0 °F 78% 29.94 in 10.0 mi Calm Calm - N/A   Clear
9:13 AM 69.8 °F 62.6 °F 78% 29.96 in 10.0 mi Calm Calm - N/A   Scattered Clouds
9:34 AM 69.4 °F 61.7 °F 76% 29.96 in 10.0 mi Calm Calm - N/A   Scattered Clouds
9:54 AM 69.3 °F 60.8 °F 74% 29.96 in 10.0 mi Calm Calm - N/A   Scattered Clouds
10:14 AM 68.9 °F 59.5 °F 72% 29.94 in 10.0 mi Calm Calm - N/A   Clear
10:33 AM 68.5 °F 59.0 °F 72% 29.92 in 10.0 mi NNW 12.7 mph 17.3 mph N/A   Clear
10:53 AM 68.7 °F 58.1 °F 69% 29.93 in 10.0 mi Calm Calm - N/A   Clear
11:13 AM 69.1 °F 56.8 °F 65% 29.96 in 10.0 mi Calm Calm - N/A   Scattered Clouds
11:34 AM 68.9 °F 56.1 °F 64% 29.96 in 10.0 mi Calm Calm - N/A Thunderstorm Mostly Cloudy
11:54 AM 68.0 °F 56.7 °F 67% 29.96 in 10.0 mi NW 4.6 mph - N/A Rain Light Rain
12:14 PM 67.1 °F 56.7 °F 69% 29.95 in 10.0 mi Calm Calm - N/A Thunderstorm Unknown
12:33 PM 67.1 °F 57.2 °F 70% 29.92 in 10.0 mi Calm Calm - N/A Rain Light Rain
12:54 PM 66.7 °F 59.0 °F 76% 29.94 in 10.0 mi Calm Calm - N/A Rain Light Rain
1:13 PM 67.8 °F 58.6 °F 72% 29.94 in 10.0 mi Calm Calm - N/A   Scattered Clouds
1:33 PM 70.7 °F 57.9 °F 64% 29.94 in 10.0 mi Calm Calm - N/A   Scattered Clouds
1:53 PM 71.4 °F 57.7 °F 62% 29.95 in 10.0 mi Calm Calm - N/A   Clear
2:13 PM 73.8 °F 58.1 °F 58% 29.95 in 10.0 mi Calm Calm - N/A   Clear
2:34 PM 75.2 °F 58.1 °F 55% 29.94 in 10.0 mi Calm Calm - N/A   Clear
2:53 PM 76.6 °F 58.1 °F 53% 29.94 in 10.0 mi Calm Calm - N/A   Clear
3:13 PM 77.7 °F 57.6 °F 50% 29.94 in 10.0 mi Calm Calm - N/A   Clear
3:33 PM 78.8 °F 56.8 °F 47% 29.94 in 10.0 mi Calm Calm - N/A   Clear
3:54 PM 78.8 °F 57.6 °F 48% 29.93 in 10.0 mi Calm Calm - N/A   Clear
4:13 PM 79.7 °F 55.9 °F 44% 29.92 in 10.0 mi Calm Calm - N/A   Clear
4:34 PM 79.2 °F 54.5 °F 42% 29.92 in 10.0 mi Calm Calm - N/A   Clear
4:54 PM 80.1 °F 49.6 °F 34% 29.91 in 10.0 mi Calm Calm - N/A   Clear
5:14 PM 80.6 °F 50.7 °F 35% 29.91 in 10.0 mi Calm Calm - N/A   Clear
5:34 PM 80.6 °F 50.4 °F 35% 29.90 in 10.0 mi Calm Calm - N/A   Clear
5:53 PM 80.6 °F 48.0 °F 32% 29.90 in 10.0 mi Calm Calm - N/A   Clear
6:14 PM 81.5 °F 46.9 °F 30% 29.90 in 10.0 mi Calm Calm - N/A   Clear
6:33 PM 81.0 °F 47.1 °F 30% 29.90 in 10.0 mi Calm Calm - N/A   Clear
6:54 PM 80.8 °F 47.3 °F 31% 29.89 in 10.0 mi Calm Calm - N/A   Clear
7:13 PM 80.4 °F 46.9 °F 31% 29.90 in 10.0 mi Calm Calm - N/A   Clear
7:34 PM 80.1 °F 46.0 °F 30% 29.90 in 10.0 mi Calm Calm - N/A   Clear
7:53 PM 79.3 °F 46.8 °F 32% 29.90 in 10.0 mi Calm Calm - N/A   Clear
8:14 PM 77.9 °F 46.8 °F 33% 29.90 in 10.0 mi Calm Calm - N/A   Clear
8:34 PM 75.7 °F 49.3 °F 39% 29.90 in 10.0 mi Calm Calm - N/A   Clear
8:54 PM 75.2 °F 48.6 °F 39% 29.91 in 10.0 mi Calm Calm - N/A   Clear
9:13 PM 73.4 °F 49.6 °F 43% 29.91 in 10.0 mi Calm Calm - N/A   Clear
9:33 PM 70.3 °F 51.1 °F 50% 29.92 in 10.0 mi Calm Calm - N/A   Clear
9:53 PM 69.1 °F 51.1 °F 53% 29.93 in 10.0 mi Calm Calm - N/A   Clear
10:14 PM 68.5 °F 51.1 °F 54% 29.94 in 10.0 mi Calm Calm - N/A   Clear
10:34 PM 68.0 °F 51.8 °F 56% 29.95 in 10.0 mi Calm Calm - N/A   Clear
10:54 PM 67.3 °F 51.4 °F 57% 29.95 in 10.0 mi Calm Calm - N/A   Clear
11:14 PM 67.3 °F 51.4 °F 57% 29.95 in 10.0 mi Calm Calm - N/A   Clear
11:33 PM 67.8 °F 50.9 °F 55% 29.95 in 10.0 mi Calm Calm - N/A   Clear
11:54 PM 65.3 °F 52.0 °F 62% 29.95 in 10.0 mi Calm Calm - N/A   Clear